Regional Weather Roundup
Issued by NWS Glasgow, MT

Home | Current Version | Previous Version | Text Only | Print | Product List | Glossary On
Versions: 1 2 3 4 5 6 7 8 9 10 11 12 13 14 15 16 17 18 19 20 21 22 23 24 25 26 27 28 29 30 31 32 33 34 35 36 37 38 39 40 41 42 43 44 45 46 47 48 49 50
000
ASUS45 KGGW 311515
RWRGGW
HOURLY WEATHER ROUNDUP FOR NORTHEAST MONTANA
NATIONAL WEATHER SERVICE GLASGOW MONTANA
900 AM MDT THU JUL 31 2014

NOTE: "FAIR" INDICATES FEW OR NO CLOUDS BELOW 12,000 FEET WITH NO
SIGNIFICANT WEATHER AND/OR OBSTRUCTIONS TO VISISBILITY.

NORTHEAST MONTANA


CITY           SKY/WX    TMP DP  RH WIND       PRES   REMARKS
GLASGOW        SUNNY     77  49  37 SE18      30.04F
PLENTYWOOD       N/A     68  57  68 S7          N/A
WOLF POINT     MOSUNNY   82  49  31 S10G16    30.04F
JORDAN           N/A     80  44  27 S13       30.07F
WINNETT          N/A     75  45  34 S3          N/A
SIDNEY         PTSUNNY   70  59  68 SE6       30.10S
GLENDIVE       SUNNY     73  52  46 S10       30.12F
MALTA            N/A     74  53  48 NE1         N/A

FORT PECK REPORTS


CITY           SKY/WX    TMP DP  RH WIND       PRES   REMARKS
FORT PECK        N/A     76  54  46 SE21        N/A
THE PINES        N/A     77  49  37 S9          N/A

SOUTHEAST MONTANA


CITY           SKY/WX    TMP DP  RH WIND       PRES   REMARKS
BILLINGS       MOSUNNY   67  43  41 SW8       30.16R
MILES CITY     MOSUNNY   76  51  41 SE14      30.11F
BAKER          PTSUNNY   77  48  35 S10       30.16F
LIVINGSTON     MOSUNNY   71  42  35 NW13      30.23S

CENTRAL MONTANA


CITY           SKY/WX    TMP DP  RH WIND       PRES   REMARKS
HAVRE          SUNNY     73  47  39 W7        30.07R
LEWISTOWN      MOSUNNY   75  40  28 SW6       30.17F
GREAT FALLS    SUNNY     71  45  39 SW7       30.15R
CUT BANK       MOSUNNY   75  48  38 W7        30.15R
HELENA         MOSUNNY   68  47  46 CALM      30.21S
BUTTE          SUNNY     60  44  55 CALM      30.32S
BOZEMAN        SUNNY     65  46  50 VRB3      30.25S

WESTERN MONTANA


CITY           SKY/WX    TMP DP  RH WIND       PRES   REMARKS
MISSOULA       SUNNY     67  46  47 CALM      30.20R
KALISPELL      NOT AVBL

NORTH DAKOTA


CITY           SKY/WX    TMP DP  RH WIND       PRES   REMARKS
WILLISTON      PTSUNNY   69  57  65 S5        30.08S
DICKINSON      PTSUNNY   72  58  61 S9        30.10S
MINOT          SUNNY     72  55  55 NE3       30.08S
BISMARCK       SUNNY     72  58  61 S3        30.11S

SOUTHERN SASKATCHEWAN


CITY           SKY/WX    TMP DP  RH WIND       PRES   REMARKS
REGINA         MOSUNNY   72  59  64 SE10      30.07S
MOOSE JAW      MOSUNNY   72  61  68 SE7       30.06S
ESTEVAN        PTSUNNY   73  59  60 SE5       30.10R
SWIFT CURRENT  SUNNY     73  54  49 SW13      30.02



USA.gov is the U.S. government's official web portal to all federal, state and local government web resources and services.